www.pogodaiklimat.ru

Погода и климат >> Архив погоды >> Китай >> Хэйлунцзян >> Аньда


ПОГОДА в Аньда

  • Прогноз погоды в Аньда
  • Монитор погоды в Аньда

АРХИВ ПОГОДЫ в Аньда

Время (UTC), дата Ветер
(напр.,м/с)
 
Видим.   Явления Облачность Т
(С)
Тd
(С)
f
(%)
Тe
(С)
Тes
(С)
Комфортность P
(гПа)
Po
(гПа)
Тmin
(С)
Tmax
(С)
R
(мм)
R24
(мм)
S
(см)
21 12.05 Ю 5 7000 м слаб. дождь н/о +13.8 +9.0 73 +12 +12 1004.6 986.8
00 13.05 Ю 3 16 км слаб. дождь 10/10 600 м
[]
+11.2 +9.8 91 +9 +9 1005.0 987.0 1
03 13.05 Ю 3 21 км слаб. дождь 10/10 1500 м
[]
+11.2 +9.1 87 +9 +9 1005.0 987.0
06 13.05 Ю 7 30 км {дождь} 8/8 600 м
[]
+16.1 +5.7 50 +15 +15 1002.9 985.3 +10.2 0.1
09 13.05 Ю 5 30 км 9/9 600 м
[]
+16.5 +2.5 39 +16 +16 1002.5 984.9
12 13.05 Ю 5 30 км 8/8 600 м
[]
+12.9 +2.7 50 +11 +11 1003.1 985.3
18 13.05 Ю 2 16 км слаб. дождь ?/? +8.9 +6.0 82 +7 +7 1003.9 985.8 +17.4 0.6
21 13.05 В 3 30 км в посл. час дождь н/о +8.8 +6.4 85 +6 +6 1001.6 983.6
00 14.05 Ю 2 30 км 9/9 600 м
[]
+11.1 +6.8 75 +10 +11 1002.2 984.3 2
03 14.05 Ю 4 30 км 8/8 600 м
[]
+13.6 +5.3 57 +12 +15 1003.6 985.8
06 14.05 ЮЗ 6 30 км 6/6 600 м
[]
+16.2 +3.3 42 +15 +17 1004.6 987.0 +8.2
09 14.05 ЮЗ 5 30 км 3/3 600 м
[]
+18.0 +1.9 34 +18 +19 1005.1 987.6
12 14.05 Ю 1 20 км 3/3 600 м
[]
+12.0 +3.5 56 +12 +12 1006.5 988.6
18 14.05 ЮВ 2 30 км ?/? +10.7 +2.5 57 +10 +10 1006.3 988.3 +18.1
21 14.05 В 2 30 км н/о +12.0 +2.7 53 +11 +11 1004.7 986.8
00 15.05 Ю 6 23 км 9/9
[]
+18.1 +6.3 46 +18 +18 1004.1 986.6
03 15.05 Ю 4 23 км 4/4
[]
+22.1 +4.7 32 +22 +29 комфорт 1002.2 984.9
06 15.05 Ю 7 19 км 9/9
[]
+26.2 +4.1 24 +25 +26 комфорт 999.0 982.0 +9.2
09 15.05 Ю 5 12 км 9/9 1500 м
[]
+26.3 +7.4 30 +26 +26 жарко 996.4 979.5
12 15.05 Ю 8
{18}
10 км 9/9 1500 м
[]
+24.5 +6.7 32 +25 +25 комфорт 996.4 979.4
18 15.05 Ю 4
{20}
25 км ?/? +16.9 +11.6 71 +16 +16 996.6 979.1 +26.9 0.6
21 15.05 ЮЗ 4 4900 м мгла н/о +16.6 +7.8 56 +16 +16 996.9 979.4
00 16.05 ЮЗ 8 16 км 9/9 1500 м
[]
+16.9 -0.8 30 +16 +16 998.3 980.8 0.6
03 16.05 ЮЗ 10
{19}
23 км 3/3 600 м
[]
+18.8 -2.8 23 +18 +18 998.8 981.4
06 16.05 З 14
{21}
17 км 9/9 1500 м
[]
+22.1 -9.7 11 +20 +20 998.1 980.9 +15.5
09 16.05 ЮЗ 10
{21}
30 км 9/9 600 м
[]
+22.3 -5.6 15 +21 +21 комфорт 998.1 980.9
12 16.05 Ю 1
{21}
30 км 9/9 600 м
[]
+19.0 -1.5 25 +20 +20 998.5 981.1
18 16.05 ЮЗ 1 30 км ?/? +11.3 -0.8 43 +12 +12 1001.5 983.6 +23.2
21 16.05 Ю 1 27 км н/о +10.4 -0.1 48 +10 +10 1003.4 985.4
00 17.05 Ю 2 30 км 9/9 600 м
[]
+17.7 +0.8 32 +18 +19 1004.8 987.2
03 17.05 Ю 3 30 км 9/9 600 м
[]
+19.7 +0.7 28 +20 +22 1004.7 987.3
06 17.05 ЮВ 5 30 км 8/8 600 м
[]
+23.3 -0.2 21 +22 +24 комфорт 1002.6 985.4 +7.0
09 17.05 Ю 7 30 км 9/9 1500 м
[]
+24.2 +9.8 40 +25 +25 комфорт 1001.3 984.2
12 17.05 Ю 4 17 км 8/8 1500 м
[]
+21.6 +14.7 65 +25 +25 комфорт 1002.0 984.7
18 17.05 Ю 1 30 км ?/? +13.5 +6.1 61 +14 +14 1006.8 989.0 +24.8 0.7
21 17.05 СЗ 1 30 км н/о +11.4 +9.1 86 +11 +11 1007.2 989.2
00 18.05 С 3 30 км 8/8 1500 м
[]
+16.0 +3.8 44 +16 +17 1008.8 991.1 0.7
03 18.05 С 4 7000 м слаб. дождь 9/9 600 м
[]
+13.2 +6.5 64 +12 +13 1010.5 992.6
06 18.05 В 3 30 км {дождь} 9/9 1500 м
[]
+13.6 +7.4 66 +13 +14 1010.2 992.3 +11.3 0.4
09 18.05 Ю 3 30 км 3/3 1500 м
[]
+15.0 +8.7 66 +14 +16 1009.7 991.9
12 18.05 Ю 4 29 км 5/5 1500 м
[]
+11.6 +9.2 85 +9 +9 1010.2 992.2
18 18.05 Ю 3 30 км в посл. час дождь ?/? +13.2 +7.4 68 +12 +12 1011.2 993.3 +16.5
21 18.05 Ю 2 30 км слаб. дождь н/о +11.4 +7.5 77 +10 +10 1010.8 992.8
00 19.05 СВ 3 30 км слаб. дождь 9/9 1500 м
[]
+11.4 +8.6 83 +10 +10 1009.6 991.6 0.5
03 19.05 СВ 3 30 км слаб. дождь 10/10 600 м
[]
+12.2 +8.7 79 +11 +11 1007.7 989.8
06 19.05 СВ 4 15 км слаб. дождь 10/10 1500 м
[]
+11.1 +9.2 88 +9 +9 1004.1 986.2 +11.1 3
09 19.05 СВ 6 30 км слаб. дождь 10/10 1500 м
[]
+9.6 +8.4 92 +6 +6 999.3 981.3
12 19.05 В 7 24 км слаб. дождь 10/10 1500 м
[]
+10.4 +9.8 96 +7 +7 993.7 975.9 7
18 19.05 Ю 3 30 км ?/? +9.1 +5.8 80 +7 +7 988.6 970.8 +15.1 3

 

Местоположение метеостанции Аньда (Хэйлунцзян, Китай): широта 46.38 долгота 125.31 высота над уровнем моря 150 м.

В архиве по умолчанию представлена погода в Аньда за последнюю неделю. Архивные данные за месяц целиком и за предыдущие месяцы, начиная с января 2011 года, Вы можете получить, выбрав интересующий диапазон дат из раскрывающегося списка и нажав кнопку "Ввод!".


*Определитесь, кто Вы:
робот инопланетянин человек

Внимание! Время в таблицах - всемирное. Для получения местного времени необходимо прибавить поправку, которая равна 8 ч.

Смотрите также архив погоды в соседних городах и на ближайших метеорологических станциях:

Погода в Харбине (Хэйлунцзян, Китай) (132 км)
Погода в Тайлае (Хэйлунцзян, Китай) (146 км)
Погода в Цянь Горлос (Гирин, Китай) (149 км)
Погода в Цицикаре (Хэйлунцзян, Китай) (154 км)
Погода в Хайлуне (Хэйлунцзян, Китай) (171 км)
Погода в Кэшане (Хэйлунцзян, Китай) (191 км)
Погода в Шанчжи (Хэйлунцзян, Китай) (243 км)
Погода в Чанлине (Гирин, Китай) (259 км)
Погода в Тунхэ (Хэйлунцзян, Китай) (267 км)
Погода в Чанчуне (Гирин, Китай) (276 км)

Пояснения к столбцам:

Ветер - указаны скорость ветра в м/с - средняя за 10 мин, порывы в срок и между сроками (в фигурных скобках) и направление, откуда дует ветер: С - северный, СВ - северо-восточный, В - восточный, ЮВ - юго-восточный, Ю - южный, ЮЗ - юго-западный, З - западный, СЗ - северо-западный.
Видимость - горизонтальная дальность видимости в метрах или километрах. При видимости от 1 до 10 км при отсутствии осадков обычно наблюдается дымка, при ухудшении видимости до 1 км и менее - туман. В сухую погоду видимость может ухудшаться дымом, пылью или мглою.
Явления - указаны атмосферные явления, наблюдавшиеся в срок или в последний час перед сроком; фигурными скобками обозначены явления, наблюдавшиеся между сроками (за 1-3 часа до срока); квадратными скобками обозначены град или гололедные отложения с указанием их диаметра в мм.
Облачность - указаны через наклонную черту общая и нижняя облачность в баллах и высота нижней границы облаков в метрах; квадратными скобками обозначены формы облаков: Ci - перистые, Cs - перисто-слоистые, Cc - перисто-кучевые, Ac - высококучевые, As - высокослоистые, Sc - слоисто-кучевые, Ns - слоисто-дождевые, Cu - кучевые, Cb - кучево-дождевые. Подробнее классификацию облаков см. в Атласе облаков (PDF).
T - Температура воздуха - температура, измеренная на высоте 2 м над землей.
Td - Температура точки росы - температура, при понижении до которой содержащийся в воздухе водяной пар достигнет насыщения.
f - Относительная влажность воздуха - влажноcть воздуха, измеренная на высоте 2 м над землей.
Te - Эффективная температура - температура, которую ощущает одетый по сезону человек в тени. Характеристика душности погоды. При расчете учитывается влияние влажности воздуха и скорости ветра на теплоощущения человека.
Tes - Эффективная температура на солнце - температура, которую ощущает человек, с поправкой на солнечный нагрев. Характеристика знойности погоды. Зависит от высоты солнца над горизонтом, облачности и скорости ветра. Ночью, в пасмурную погоду, а также при ветре 12 м/с и более поправка равна нулю.
P - Атмосферное давление - приведенное к уровню моря атмосферное давление.
Po - Атмосферное давление - измеренное на уровне метеостанции атмосферное давление.
Tmin - Минимальная температура - минимум температуры воздуха на высоте 2 м над землей.
Tmax - Максимальная температура - максимум температуры воздуха на высоте 2 м над землей.
R - Количество осадков - Количество выпавших осадков за период времени, мм. При наведении курсора мыши на число - период времени, за который выпало указанное количество осадков.
R24 - Количество осадков - Количество выпавших осадков за 24 часа, мм.
S - Снежный покров - Высота снежного покрова, см. При наведении курсора мыши на число - состояние снежного покрова и степень покрытия местности в баллах.